1998-067LY

Last updated on Thu May 25 2017 00:15:03 GMT+0000 (Coordinated Universal Time)

1 42717U 98067LY 17143.36289321 .00006325 00000-0 10000-3 0 9991 2 42717 51.6444 162.0110 0003288 237.3073 259.5090 15.54875803 11
UTC large
Height (km)
Speed (km/s)
/
Latitude / Longitude
Inclination (degrees)
Orbital Period (minutes)
Azimuth
Elevation
Range (km)
Doppler Factor

Next 0 passes for location: London (51.5072 / 0.1276)

Sorry there are no passes over London.